Lapse_Rate
5.7 5.3 5.4 5.5 5.7 5.5 4.9 4.0 3.3 2.8 2.6 2.5 2.2 2.2 2.5 3.6 5.9 6.1 6.0 6.1 6.1 6.1 6.2 6.5 6.6 6.4 5.9 5.9 6.5 6.6 6.1 6.1 6.2 5.9 5.6 5.7 5.8 5.9 6.0 6.2 6.3 5.9 6.1 7.1
5.6 5.3 5.3 5.5 5.7 5.5 5.1 4.2 3.3 2.8 2.8 2.6 2.3 2.4 2.4 3.5 5.5 6.2 6.1 6.0 6.0 5.9 6.0 6.4 6.5 6.3 6.1 6.0 6.4 6.6 6.4 6.1 6.3 6.1 5.5 5.3 5.4 5.5 5.8 6.1 6.0 5.8 6.9 7.1
5.6 5.3 5.3 5.4 5.6 5.4 5.1 4.3 3.5 2.8 3.0 2.9 2.4 2.3 2.4 3.5 5.2 6.0 6.1 5.9 5.9 6.0 6.0 6.3 6.4 6.3 6.0 5.9 6.1 6.0 6.0 6.2 6.5 6.7 6.2 5.8 5.3 5.5 5.8 6.0 6.2 6.5 7.3 6.9
5.6 5.5 5.3 5.3 5.5 5.5 5.3 4.4 3.5 2.8 3.0 2.9 2.6 2.5 2.5 3.1 4.9 5.9 6.3 5.9 6.0 5.8 6.0 6.3 6.2 6.3 6.1 5.7 6.1 6.0 5.9 5.9 6.0 6.1 5.9 5.6 5.3 6.1 6.6 6.5 6.5 7.0 7.2 7.2
5.5 5.5 5.3 5.2 5.4 5.6 5.2 4.7 4.0 3.1 3.1 2.9 2.7 2.5 2.5 2.9 4.4 5.7 6.2 6.2 6.3 6.1 6.0 6.1 6.1 6.3 6.2 6.0 5.8 5.8 6.0 5.9 6.0 6.5 6.2 5.9 5.7 5.7 7.0 6.9 6.5 6.7 7.1 7.4
5.5 5.4 5.3 5.2 5.4 5.5 5.2 4.8 4.0 3.4 3.1 2.9 2.7 2.4 2.5 2.8 3.9 5.3 6.2 6.3 6.6 6.2 6.2 6.2 6.2 6.3 6.5 6.4 6.3 6.0 6.0 6.3 6.4 6.2 6.2 5.8 5.9 5.9 6.5 6.8 7.4 7.3 7.4 7.6
5.5 5.4 5.4 5.3 5.2 5.4 5.4 4.9 4.4 3.7 3.3 2.9 2.6 2.3 2.6 2.6 3.6 5.1 6.0 6.3 6.4 6.4 6.4 6.4 6.3 6.2 6.4 6.4 6.5 6.6 6.6 6.5 6.1 6.4 6.4 6.9 6.3 6.4 6.8 6.9 7.4 7.7 7.7 7.5
5.4 5.4 5.5 5.6 5.2 5.3 5.6 4.9 4.7 4.2 3.4 2.9 2.7 2.3 2.4 2.7 3.4 4.8 5.6 6.1 6.5 6.6 6.6 6.5 6.4 6.2 6.3 6.4 6.5 6.6 6.7 6.6 6.6 6.7 6.6 6.5 6.3 6.4 6.5 6.5 6.9 7.6 7.8 7.2
5.4 5.3 5.5 5.7 5.4 5.3 5.4 5.2 5.1 4.7 3.8 3.3 3.1 2.6 2.4 2.6 2.9 4.0 5.1 6.2 6.5 6.7 6.8 6.6 6.4 6.1 6.2 6.4 6.3 6.5 6.6 6.6 6.4 6.7 6.8 7.0 6.2 5.9 6.1 5.9 6.0 6.5 6.9 6.7
5.3 5.3 5.5 5.7 5.5 5.4 5.4 5.4 5.2 4.9 4.2 3.7 3.5 2.9 2.6 2.5 2.7 3.8 4.5 5.7 6.1 6.3 6.5 6.6 6.3 6.2 6.1 6.1 6.3 6.4 6.5 6.4 6.4 6.4 6.6 6.4 6.2 6.2 5.8 5.6 5.9 6.1 6.7 6.8
5.3 5.3 5.5 5.6 5.5 5.6 5.5 5.5 5.4 5.0 4.6 4.0 3.8 3.4 3.1 2.7 2.7 3.5 4.4 5.4 6.1 6.4 6.3 6.1 6.0 6.1 6.1 6.1 6.1 6.2 6.2 6.3 6.3 6.4 6.5 6.5 6.4 6.2 6.2 6.3 6.3 6.4 6.5 6.6
5.4 5.3 5.4 5.6 5.4 5.7 5.5 5.6 5.6 5.1 4.9 4.4 4.1 3.7 3.5 3.1 2.9 3.3 4.3 5.3 6.0 6.3 6.3 5.9 5.9 5.9 6.1 6.2 6.3 6.2 6.2 6.2 6.2 6.2 6.1 6.2 6.2 6.2 6.3 6.3 6.1 6.0 5.9 5.9
5.3 5.4 5.3 5.6 5.4 5.6 5.7 5.6 5.6 5.4 5.1 4.4 4.1 3.7 3.7 3.5 3.1 3.5 4.2 5.3 5.8 6.2 6.3 5.9 5.9 6.0 5.9 5.9 6.1 6.3 6.3 6.3 6.3 6.4 6.3 6.3 6.1 6.2 6.2 6.3 6.2 6.0 5.9 6.0
5.2 5.3 5.3 5.6 5.5 5.7 5.7 5.6 5.4 5.4 4.9 4.6 4.2 3.9 3.7 3.9 3.8 4.0 4.5 5.5 6.2 6.3 6.3 6.4 6.1 5.9 6.0 6.0 6.2 6.4 6.5 6.4 6.4 6.4 6.3 6.3 6.2 6.3 6.3 6.2 6.2 6.1 6.1 6.1
5.2 5.2 5.2 5.5 5.5 5.8 5.8 5.6 5.3 5.5 5.3 5.1 4.6 4.4 4.2 4.3 4.2 4.4 4.5 5.0 6.1 6.5 6.5 6.6 6.5 6.4 6.3 6.4 6.6 6.7 6.6 6.5 6.4 6.4 6.5 6.4 6.3 6.2 6.2 6.2 6.2 6.2 6.1 6.1
5.2 5.0 5.1 5.4 5.5 5.8 5.8 5.6 5.4 5.5 5.3 5.3 4.9 4.7 4.4 4.5 4.5 4.7 4.7 4.9 5.5 6.3 6.4 6.5 6.6 6.5 6.6 6.4 6.8 6.9 6.7 6.6 6.5 6.5 6.6 6.6 6.5 6.4 6.3 6.2 6.2 6.3 6.2 6.1
5.2 5.0 5.2 5.3 5.4 5.6 5.8 5.5 5.4 5.7 5.5 5.4 5.0 4.7 4.5 4.6 4.7 4.9 4.9 4.7 5.0 5.9 6.1 6.4 6.5 6.4 6.4 6.4 7.0 7.0 6.7 6.7 6.6 6.6 6.6 6.6 6.6 6.5 6.3 6.3 6.2 6.2 6.1 6.0
5.1 5.0 5.1 5.4 5.2 5.3 5.5 5.5 5.5 5.8 5.7 5.6 5.2 5.0 5.0 4.9 5.1 5.1 5.1 5.0 4.8 5.0 5.9 6.3 6.3 6.1 5.9 6.5 7.0 7.0 6.9 6.8 6.8 6.6 6.6 6.5 6.5 6.5 6.5 6.5 6.4 6.2 6.2 6.1
4.9 4.8 5.2 5.3 4.9 5.1 5.5 5.6 5.7 5.9 5.8 5.7 5.6 5.2 5.0 5.2 5.3 5.4 5.4 5.2 4.8 4.6 5.3 6.1 6.0 6.0 6.5 6.7 6.7 6.7 6.8 6.8 6.7 6.6 6.5 6.6 6.6 6.6 6.5 6.5 6.5 6.4 6.3 6.1
4.8 4.9 5.1 4.9 4.7 5.0 5.5 5.7 6.0 6.1 6.0 5.9 5.9 5.9 5.8 5.8 5.6 5.6 5.3 5.1 4.9 4.5 5.2 5.7 6.1 6.6 6.7 6.5 6.7 6.7 6.8 6.7 6.6 6.6 6.5 6.4 6.4 6.4 6.3 6.3 6.3 5.9 5.9 5.8
4.6 4.9 4.8 4.9 4.5 5.0 5.5 5.5 5.8 6.0 6.0 6.0 6.1 6.0 6.1 6.1 6.1 6.1 5.6 5.4 5.0 4.9 5.4 6.1 6.5 6.9 6.9 6.8 6.6 6.8 6.9 6.9 6.6 6.5 6.5 6.6 6.6 6.5 6.3 6.0 5.8 5.7 5.5 5.4
4.7 4.9 4.7 4.7 4.4 5.1 5.5 5.5 5.8 5.9 5.8 6.0 6.0 6.2 6.3 6.3 6.2 5.9 5.6 5.4 5.2 5.4 5.4 5.8 6.6 6.8 7.0 6.9 6.8 6.7 6.7 6.7 6.7 6.6 6.7 6.6 6.7 6.6 6.4 6.1 6.0 5.8 5.8 5.5
4.6 4.4 4.4 4.2 4.4 5.2 5.3 5.7 5.9 6.1 6.0 5.9 5.9 6.0 6.2 6.2 5.9 5.7 5.6 5.1 5.4 5.3 5.6 5.7 6.4 6.6 7.0 6.9 7.1 6.9 6.7 6.6 6.6 6.7 6.9 6.8 6.6 6.4 6.2 6.1 6.1 6.0 5.9 5.8
4.1 3.9 4.0 4.0 4.6 5.5 5.7 6.1 6.1 6.0 6.1 5.9 5.9 6.0 6.0 5.9 5.9 5.9 5.7 5.2 5.3 5.4 5.6 5.7 5.8 6.6 6.8 6.9 7.0 7.0 6.9 6.7 6.8 6.8 6.8 6.7 6.6 6.4 6.3 6.3 6.1 6.0 6.0 6.0
3.7 3.9 3.7 3.9 5.2 5.5 5.7 6.0 6.0 6.0 6.0 6.0 6.0 6.1 6.0 5.8 5.8 5.8 5.6 5.5 5.4 5.4 5.2 5.5 5.9 6.4 6.8 6.9 7.0 7.0 6.9 6.9 6.8 6.8 6.8 6.8 6.7 6.6 6.5 6.3 6.2 6.3 6.3 6.3
3.6 3.7 3.9 4.8 5.3 5.3 5.9 6.0 5.9 5.9 6.0 6.0 5.9 6.1 5.7 5.6 5.7 5.7 5.8 5.5 5.6 5.3 5.4 5.5 5.9 6.3 6.7 6.9 6.7 6.9 6.9 6.9 6.8 6.8 6.7 6.7 6.7 6.6 6.6 6.5 6.6 6.6 6.5 6.4
3.8 4.0 4.4 5.1 5.3 5.4 5.7 5.8 5.8 5.8 5.8 5.8 5.7 5.9 5.8 5.7 5.6 5.6 5.6 5.6 5.7 5.5 5.3 5.3 5.3 6.1 6.8 6.8 6.9 6.7 6.6 6.5 6.4 6.4 6.4 6.4 6.4 6.5 6.6 6.7 6.8 6.7 6.5 6.3
Wind_Speed
3 9 12 15 17 9 3 2 0 2 2 0 1 2 3 4 6 4 2 2 6 5 6 2 3 2 2 10 11 8 4 2 4 4 1 2 7 4 5 3 3 1 4 4
2 7 11 14 15 6 3 2 1 1 3 1 1 1 3 2 5 5 5 4 5 4 4 3 5 5 2 9 11 11 7 3 4 2 4 4 5 5 5 3 2 0 1 5
2 6 11 14 14 3 2 2 1 2 3 1 2 3 4 5 5 2 4 3 4 8 3 4 6 3 3 1 6 4 7 2 4 1 1 5 6 9 8 3 2 0 7 7
4 7 11 14 13 4 2 2 2 1 1 2 2 1 4 5 5 3 4 3 8 5 4 7 7 5 3 1 3 2 5 3 4 8 10 5 5 12 13 9 10 3 5 2
7 8 11 13 12 7 3 2 3 2 2 0 2 3 2 5 5 2 1 4 10 6 3 4 5 7 4 4 4 3 2 2 2 3 6 10 9 11 16 16 11 9 1 2
10 9 9 11 12 3 3 2 1 1 2 2 2 1 2 3 6 4 5 7 6 7 5 12 15 11 9 2 5 8 5 3 2 2 2 8 5 14 18 15 11 10 8 3
13 11 8 9 12 8 3 2 2 2 3 2 1 1 2 5 6 4 8 6 2 5 17 14 2 3 4 5 8 6 6 4 3 2 2 2 3 2 10 16 14 14 7 2
17 13 8 7 11 10 3 2 2 2 3 2 2 2 3 6 4 3 4 3 6 13 8 3 2 2 3 3 5 12 8 4 2 2 2 2 1 2 2 11 12 14 16 12
20 16 10 7 8 9 4 3 1 2 3 2 1 1 2 3 5 2 2 5 8 7 2 2 2 2 3 2 2 5 4 9 4 1 1 1 2 3 2 4 5 2 13 13
22 17 12 9 8 7 3 3 2 2 3 2 1 2 2 2 2 3 3 7 8 8 4 3 4 2 1 2 4 3 1 1 2 1 0 2 2 4 1 4 3 6 5 11
24 19 15 11 10 9 2 3 2 1 3 2 2 2 1 0 2 3 5 3 3 5 3 3 2 2 3 2 1 4 3 2 1 1 1 1 4 2 3 3 4 3 3 6
25 21 17 13 11 9 5 2 2 2 3 3 1 2 2 2 3 3 3 2 1 3 1 2 3 1 2 3 1 2 1 3 3 2 3 2 3 3 3 3 2 4 6 5
26 22 18 15 13 10 4 3 3 2 3 2 2 1 1 2 5 1 2 1 1 2 1 1 0 3 2 2 2 4 2 1 3 3 1 1 1 1 3 4 5 6 6 6
26 23 19 16 13 14 6 2 2 2 2 3 2 1 1 1 1 3 3 1 2 0 1 1 1 2 1 2 3 2 3 3 2 3 2 2 2 2 3 5 7 7 7 7
27 24 20 16 14 14 10 4 2 1 1 3 3 1 1 2 2 2 3 5 2 1 2 2 3 2 1 2 2 4 3 1 2 2 4 2 1 2 2 5 6 4 6 7
27 24 21 19 19 18 2 2 1 1 0 2 3 1 1 2 2 3 3 4 2 1 2 2 3 3 2 2 2 2 2 2 4 2 4 3 3 3 2 4 4 5 6 5
28 25 22 20 17 3 0 1 3 3 1 2 3 2 2 2 1 2 2 1 1 2 1 2 3 2 2 1 4 2 1 3 3 3 2 2 2 1 3 5 5 6 6 5
29 25 22 19 17 11 2 3 6 3 3 2 3 2 1 4 1 1 1 2 2 3 2 3 3 2 2 3 3 7 4 3 2 3 3 2 5 4 4 3 3 3 3 3
29 29 26 5 2 1 2 5 5 3 1 3 2 1 0 3 2 1 2 2 2 2 2 3 2 1 3 4 7 7 7 5 5 3 2 1 1 2 2 2 2 2 2 2
36 12 2 3 0 7 8 2 1 2 2 2 2 2 1 1 2 1 2 2 1 2 4 2 3 3 6 7 6 6 6 6 6 3 3 1 2 2 1 2 3 3 2 2
2 3 3 1 2 1 2 2 2 1 2 1 2 2 0 1 1 1 1 2 2 2 1 2 2 2 5 9 8 6 5 5 4 3 3 3 3 1 1 2 3 3 2 2
6 8 7 3 1 3 4 2 1 1 3 3 2 2 2 1 1 2 1 2 1 3 0 2 2 3 9 9 9 8 5 4 3 3 2 2 3 2 1 2 2 2 2 3
3 3 4 3 2 2 5 6 2 2 4 4 3 2 1 1 2 1 1 3 3 3 2 1 3 5 7 10 8 7 6 5 2 1 0 2 2 3 2 2 2 1 1 2
3 4 4 2 3 4 3 3 3 2 3 5 3 3 1 1 1 0 2 2 2 3 1 2 2 5 7 8 8 8 7 4 2 0 2 1 2 2 1 1 1 0 1 2
3 2 4 3 3 3 3 4 4 1 4 4 3 3 2 1 1 1 2 2 3 1 2 2 2 5 7 8 9 8 7 5 4 3 3 2 1 2 2 1 1 1 1 1
3 4 4 3 3 2 3 3 4 2 3 3 3 3 2 2 2 2 5 3 4 3 2 2 3 4 6 6 8 8 6 4 4 3 3 3 3 2 1 1 1 1 0 0
3 2 3 2 3 4 4 3 4 4 2 2 3 4 4 2 1 3 3 3 2 2 2 3 4 5 7 6 7 6 3 4 5 4 2 3 3 2 3 5 3 2 1 2
Wind_Direction
355 357 1 3 357 3 69 117 149 42 263 77 359 50 315 320 320 347 342 275 322 335 337 293 264 238 239 182 163 175 177 112 157 218 85 186 278 197 188 304 149 22 318 77
36 8 8 6 0 19 140 83 43 87 267 70 33 10 0 310 337 353 2 339 355 297 340 347 340 63 22 177 169 164 178 178 127 135 275 183 227 184 224 111 320 351 300 113
96 26 17 8 4 85 91 119 140 41 64 31 338 16 1 343 351 252 350 319 8 344 309 15 356 72 69 206 185 198 183 226 247 179 53 153 193 205 212 206 267 112 112 113
120 49 25 13 8 136 125 29 103 19 78 83 60 42 359 344 359 350 326 157 12 326 304 352 12 80 97 4 12 168 202 257 248 252 260 278 236 199 192 201 222 250 134 71
125 68 33 19 10 130 88 137 158 152 114 126 229 25 25 350 333 278 13 360 338 329 326 8 321 4 173 196 173 147 176 268 253 269 256 239 216 218 210 223 224 251 227 274
128 90 48 29 23 150 104 119 103 243 128 138 198 53 7 335 333 217 274 330 321 312 6 314 294 277 258 282 181 182 180 244 253 260 162 149 193 207 209 216 231 219 216 196
136 107 73 51 40 68 97 121 131 169 131 170 92 109 284 281 322 281 315 319 297 360 324 300 126 135 208 224 209 202 191 214 228 320 195 161 55 331 218 218 230 234 235 177
139 123 106 80 69 66 86 127 150 145 114 105 155 238 289 307 311 268 263 300 309 311 302 313 152 139 179 158 199 200 217 248 239 264 227 111 126 68 141 192 239 241 245 242
142 135 128 115 115 108 90 79 81 111 142 122 111 144 10 349 345 291 257 313 312 325 300 320 51 66 351 345 134 199 198 242 268 156 294 11 47 40 273 190 256 356 231 231
146 142 139 130 118 121 112 94 105 103 102 156 193 69 38 330 332 296 322 340 351 353 357 37 26 47 318 352 339 337 304 305 263 216 220 114 24 339 91 215 67 323 250 213
148 149 148 141 136 137 97 101 151 100 93 127 195 148 108 125 358 357 348 261 26 6 58 9 13 345 17 284 328 329 319 326 14 291 243 165 15 233 265 1 344 334 85 150
151 154 155 153 148 142 128 117 82 83 79 94 192 236 244 237 259 316 4 29 351 46 19 51 302 318 327 328 30 149 270 324 324 285 35 16 335 340 333 309 17 54 93 107
153 157 157 158 160 151 129 119 131 115 114 119 173 103 120 156 228 240 293 129 32 67 352 316 311 283 296 328 10 299 211 165 267 299 61 316 16 52 37 43 82 58 59 85
155 158 154 152 157 145 130 123 117 84 115 119 128 33 162 95 216 218 220 103 103 12 259 253 269 278 252 292 326 266 299 314 302 272 233 231 158 89 90 82 84 81 63 65
156 158 151 154 144 132 103 96 103 139 295 116 134 158 129 272 222 235 199 188 195 257 234 226 232 261 265 252 284 252 200 275 274 18 353 313 67 111 129 123 98 96 119 99
157 151 149 143 133 132 132 117 171 184 75 114 139 66 118 10 64 102 167 181 176 162 256 275 280 270 272 264 269 286 237 268 277 324 342 319 96 88 67 92 79 79 83 89
149 146 145 145 135 86 75 59 123 140 109 109 114 128 68 343 267 121 115 220 213 225 242 250 267 284 265 266 264 352 269 318 311 301 228 180 204 158 74 103 102 94 89 81
144 142 139 137 116 127 74 23 124 112 100 52 108 102 145 6 15 48 157 182 229 204 269 261 249 236 235 256 324 334 332 336 326 353 338 342 115 129 111 108 128 114 85 70
137 128 128 108 42 103 139 114 100 60 50 109 81 95 89 350 36 265 234 194 245 158 240 247 212 260 248 345 340 355 356 346 334 346 9 30 107 127 117 118 76 114 83 50
129 121 142 105 31 118 131 33 22 30 21 45 91 112 101 335 355 344 307 245 233 236 222 232 209 241 70 8 330 312 327 338 337 300 282 281 244 221 235 101 79 62 43 11
106 128 83 81 160 105 46 73 61 52 65 83 101 160 50 121 354 333 244 331 294 259 145 247 228 158 356 340 331 332 333 350 14 29 33 23 17 95 185 102 70 60 43 23
148 117 106 127 129 70 88 38 84 177 169 167 164 142 181 126 228 251 197 273 260 250 34 236 224 42 350 335 328 318 327 335 357 27 49 39 31 15 71 76 70 56 49 23
123 79 97 151 29 124 199 176 216 222 185 186 163 130 90 163 228 268 291 249 237 335 226 236 59 329 339 339 330 311 292 301 274 304 124 112 98 59 58 103 46 31 43 21
111 138 102 145 174 237 184 171 138 137 135 137 114 104 105 60 156 228 250 271 298 253 281 47 268 326 333 334 323 314 293 259 234 71 337 265 220 175 99 68 37 23 70 39
101 108 138 174 114 61 89 101 106 68 133 120 108 84 76 34 215 206 284 246 243 205 193 229 274 316 317 317 317 311 291 232 208 202 227 226 249 214 181 65 25 238 147 69
81 80 105 112 100 116 131 109 120 162 131 97 70 102 133 209 216 206 219 233 226 178 204 234 285 285 288 291 311 307 288 227 187 192 207 184 190 210 214 158 238 232 203 318
72 78 82 118 83 132 140 131 157 161 135 118 121 146 194 88 221 242 219 223 189 191 243 269 259 270 288 289 292 296 261 169 165 178 112 68 52 307 223 228 213 223 229 258